Retour au catalogue

NOAA 16 DEB

ActifPO
NORAD 41158·DEBRIS·🇺🇸 United States

Lancé Sep 21, 2000 depuis Vandenberg Space Force Base

Loading…

Prochains Passages (prochaines 24 heures)

TLE

FraisSource: Space-Track

Époque: Sep 14, 2026, 10:02 UTC

1 41158U 00055CR  26257.41805782  .00003547  00000-0  10765-2 0  9996
2 41158  98.9752  64.8361 0009599 281.7589  78.2522 14.42835877559847

Suivez NOAA 16 DEB en temps réel avec AllMySat

Download on the App Store